| time (UTC) | temp C | wind direction | speed KPH | gust KPH | rain 1hr cm | rain 24hr cm | rain mn cm | humidity % | barometer mb |
| 20260902143018 | 13 | 297 | 0.0 | 0.0 | 0.00 | 0.00 | 0.00 | 67 | 1014.3 |
| 20260902141521 | 13 | 84 | 0.0 | 0.0 | 0.00 | 0.00 | 0.00 | 67 | 1014.2 |
| 20260902140054 | 13 | 84 | 0.0 | 0.0 | 0.00 | 0.00 | 0.00 | 70 | 1013.7 |
| 20260902134539 | 13 | 53 | 0.0 | 0.0 | 0.00 | 0.00 | 0.00 | 73 | 1013.0 |
| 20260902133018 | 13 | 284 | 0.0 | 0.0 | 0.00 | 0.00 | 0.00 | 73 | 1012.6 |
| 20260902131503 | 13 | 285 | 0.0 | 0.0 | 0.00 | 0.00 | 0.00 | 73 | 1012.5 |
| 20260902130049 | 13 | 284 | 0.0 | 0.0 | 0.00 | 0.00 | 0.00 | 73 | 1012.2 |
| 20260902124539 | 14 | 284 | 0.0 | 0.0 | 0.00 | 0.00 | 0.00 | 72 | 1012.0 |
| 20260902123033 | 14 | 284 | 0.0 | 0.0 | 0.00 | 0.00 | 0.00 | 72 | 1011.8 |
| 20260902121519 | 13 | 284 | 0.0 | 4.8 | 0.00 | 0.00 | 0.00 | 73 | 1011.3 |
| 20260902120018 | 13 | 229 | 0.0 | 0.0 | 0.00 | 0.00 | 0.00 | 74 | 1011.5 |
| 20260902114603 | 13 | 229 | 0.0 | 4.8 | 0.00 | 0.00 | 0.00 | 75 | 1011.4 |
| 20260902113027 | 13 | 226 | 0.0 | 0.0 | 0.00 | 0.00 | 0.00 | 74 | 1011.2 |
| 20260902111523 | 13 | 232 | 0.0 | 6.4 | 0.00 | 0.00 | 0.00 | 73 | 1011.1 |
| 20260902110025 | 13 | 254 | 0.0 | 9.7 | 0.00 | 0.00 | 0.00 | 72 | 1011.1 |
| 20260902104507 | 13 | 253 | 0.0 | 1.6 | 0.00 | 0.00 | 0.00 | 72 | 1011.0 |
| 20260902103114 | 13 | 238 | 0.0 | 0.0 | 0.00 | 0.00 | 0.00 | 73 | 1010.9 |
| 20260902101537 | 13 | 209 | 0.0 | 1.6 | 0.00 | 0.00 | 0.00 | 74 | 1010.8 |
| 20260902100006 | 13 | 236 | 0.0 | 12.9 | 0.00 | 0.00 | 0.00 | 73 | 1011.0 |
| 20260902094551 | 12 | 229 | 0.0 | 0.0 | 0.00 | 0.00 | 0.00 | 74 | 1010.9 |
| 20260902093042 | 12 | 236 | 0.0 | 1.6 | 0.00 | 0.00 | 0.00 | 74 | 1010.9 |
| 20260902091545 | 12 | 272 | 0.0 | 0.0 | 0.00 | 0.00 | 0.00 | 73 | 1010.9 |
| 20260902090010 | 12 | 200 | 0.0 | 0.0 | 0.00 | 0.00 | 0.00 | 72 | 1011.1 |
| 20260902084557 | 12 | 198 | 0.0 | 0.0 | 0.00 | 0.00 | 0.00 | 71 | 1011.2 |
| 20260902083030 | 13 | 197 | 0.0 | 0.0 | 0.00 | 0.00 | 0.00 | 69 | 1011.3 |
| 20260902081514 | 13 | 219 | 0.0 | 0.0 | 0.00 | 0.00 | 0.00 | 68 | 1011.3 |
| 20260902080100 | 14 | 218 | 0.0 | 0.0 | 0.00 | 0.00 | 0.00 | 67 | 1011.4 |
| 20260902074551 | 14 | 115 | 0.0 | 0.0 | 0.00 | 0.00 | 0.00 | 67 | 1011.3 |
| 20260902073018 | 15 | 114 | 0.0 | 0.0 | 0.00 | 0.00 | 0.00 | 66 | 1011.2 |
| 20260902071509 | 15 | 107 | 0.0 | 0.0 | 0.00 | 0.00 | 0.00 | 66 | 1011.1 |
| 20260902070044 | 15 | 227 | 0.0 | 0.0 | 0.00 | 0.00 | 0.00 | 65 | 1011.2 |
| 20260902064531 | 15 | 227 | 0.0 | 0.0 | 0.00 | 0.00 | 0.00 | 65 | 1011.5 |
| 20260902063014 | 16 | 225 | 0.0 | 0.0 | 0.00 | 0.00 | 0.00 | 63 | 1011.4 |
| 20260902061557 | 16 | 228 | 0.0 | 0.0 | 0.00 | 0.00 | 0.00 | 61 | 1011.4 |
| 20260902060057 | 17 | 227 | 0.0 | 0.0 | 0.00 | 0.00 | 0.00 | 60 | 1011.4 |
| 20260902054543 | 17 | 226 | 0.0 | 0.0 | 0.00 | 0.00 | 0.00 | 59 | 1011.4 |
| 20260902053050 | 17 | 228 | 0.0 | 0.0 | 0.00 | 0.00 | 0.00 | 57 | 1011.5 |
| 20260902051522 | 18 | 266 | 0.0 | 0.0 | 0.00 | 0.00 | 0.00 | 55 | 1011.7 |
| 20260902050008 | 18 | 265 | 0.0 | 9.7 | 0.00 | 0.00 | 0.00 | 54 | 1011.5 |
| 20260902044555 | 19 | 229 | 0.0 | 4.8 | 0.00 | 0.00 | 0.00 | 53 | 1011.4 |
| 20260902043045 | 19 | 261 | 0.0 | 0.0 | 0.00 | 0.00 | 0.00 | 52 | 1011.6 |
| 20260902041539 | 19 | 86 | 0.0 | 3.2 | 0.00 | 0.00 | 0.00 | 53 | 1011.5 |
| 20260902040021 | 20 | 82 | 0.0 | 19.3 | 0.00 | 0.00 | 0.00 | 54 | 1011.4 |
| 20260902034603 | 20 | 135 | 0.0 | 4.8 | 0.00 | 0.00 | 0.00 | 53 | 1011.5 |
| 20260902033031 | 20 | 126 | 3.2 | 20.9 | 0.00 | 0.00 | 0.00 | 50 | 1011.4 |
| 20260902031519 | 20 | 123 | 3.2 | 22.5 | 0.00 | 0.00 | 0.00 | 48 | 1011.4 |
| 20260902030007 | 20 | 119 | 4.8 | 32.2 | 0.00 | 0.00 | 0.00 | 49 | 1011.3 |
| 20260902024551 | 20 | 141 | 4.8 | 32.2 | 0.00 | 0.00 | 0.00 | 50 | 1011.3 |
| 20260902023038 | 20 | 148 | 6.4 | 25.7 | 0.00 | 0.00 | 0.00 | 51 | 1011.5 |
| 20260902021509 | 21 | 135 | 0.0 | 3.2 | 0.00 | 0.00 | 0.00 | 49 | 1011.7 |
| 20260902020101 | 21 | 138 | 1.6 | 20.9 | 0.00 | 0.00 | 0.00 | 47 | 1012.0 |
| 20260902014552 | 21 | 106 | 0.0 | 22.5 | 0.00 | 0.00 | 0.00 | 46 | 1012.0 |
| 20260902013045 | 22 | 78 | 1.6 | 14.5 | 0.00 | 0.00 | 0.00 | 44 | 1011.9 |
| 20260902011545 | 22 | 31 | 1.6 | 16.1 | 0.00 | 0.00 | 0.00 | 41 | 1012.0 |
| 20260902010036 | 23 | 67 | 0.0 | 4.8 | 0.00 | 0.00 | 0.00 | 40 | 1012.0 |
| 20260902004519 | 23 | 92 | 0.0 | 14.5 | 0.00 | 0.00 | 0.00 | 39 | 1011.9 |
| 20260902003059 | 23 | 93 | 1.6 | 17.7 | 0.00 | 0.00 | 0.00 | 39 | 1011.9 |
| 20260902001555 | 22 | 111 | 1.6 | 16.1 | 0.00 | 0.00 | 0.00 | 41 | 1012.2 |
| 20260902000036 | 22 | 97 | 0.0 | 17.7 | 0.00 | 0.00 | 0.00 | 41 | 1012.4 |
| 20260901234513 | 22 | 71 | 4.8 | 24.1 | 0.00 | 0.00 | 0.00 | 40 | 1012.7 |
| 20260901233002 | 22 | 63 | 1.6 | 4.8 | 0.00 | 0.00 | 0.00 | 41 | 1012.9 |
| 20260901231556 | 23 | 60 | 1.6 | 19.3 | 0.00 | 0.00 | 0.00 | 38 | 1013.0 |
| 20260901230053 | 23 | 79 | 0.0 | 17.7 | 0.00 | 0.00 | 0.00 | 37 | 1013.0 |
| 20260901224540 | 24 | 79 | 0.0 | 14.5 | 0.00 | 0.00 | 0.00 | 36 | 1013.0 |
| 20260901223016 | 24 | 290 | 1.6 | 11.3 | 0.00 | 0.00 | 0.00 | 34 | 1013.0 |
| 20260901221604 | 23 | 254 | 0.0 | 12.9 | 0.00 | 0.00 | 0.00 | 35 | 1013.1 |
| 20260901221501 | 23 | 244 | 0.0 | 12.9 | 0.00 | 0.00 | 0.00 | 35 | 1013.2 |
| 20260901220109 | 23 | 275 | 0.0 | 19.3 | 0.00 | 0.00 | 0.00 | 39 | 1013.4 |
| 20260901214533 | 23 | 265 | 3.2 | 16.1 | 0.00 | 0.00 | 0.00 | 38 | 1013.5 |
| 20260901213032 | 23 | 293 | 1.6 | 20.9 | 0.00 | 0.00 | 0.00 | 37 | 1013.8 |
| 20260901210047 | 23 | 296 | 3.2 | 25.7 | 0.00 | 0.00 | 0.00 | 35 | 1013.9 |
| 20260901204544 | 23 | 250 | 1.6 | 14.5 | 0.00 | 0.00 | 0.00 | 35 | 1013.9 |
| 20260901203037 | 25 | 211 | 1.6 | 27.4 | 0.00 | 0.00 | 0.00 | 29 | 1014.1 |
| 20260901201513 | 25 | 248 | 1.6 | 29.0 | 0.00 | 0.00 | 0.00 | 28 | 1014.0 |
| 20260901200058 | 26 | 238 | 1.6 | 14.5 | 0.00 | 0.00 | 0.00 | 27 | 1013.7 |
| 20260901194559 | 26 | 225 | 4.8 | 25.7 | 0.00 | 0.00 | 0.00 | 24 | 1013.8 |
| 20260901193038 | 27 | 223 | 1.6 | 25.7 | 0.00 | 0.00 | 0.00 | 22 | 1013.6 |
| 20260901191531 | 27 | 248 | 3.2 | 22.5 | 0.00 | 0.00 | 0.00 | 23 | 1013.7 |
| 20260901190014 | 29 | 243 | 6.4 | 19.3 | 0.00 | 0.00 | 0.00 | 21 | 1013.4 |
| 20260901184509 | 28 | 225 | 3.2 | 24.1 | 0.00 | 0.00 | 0.00 | 22 | 1013.8 |
| 20260901183043 | 26 | 234 | 4.8 | 22.5 | 0.00 | 0.00 | 0.00 | 24 | 1013.7 |
| 20260901181539 | 26 | 211 | 4.8 | 19.3 | 0.00 | 0.00 | 0.00 | 23 | 1013.6 |
| 20260901180006 | 25 | 209 | 0.0 | 8.0 | 0.00 | 0.00 | 0.00 | 24 | 1013.6 |
| 20260901174552 | 23 | 145 | 0.0 | 3.2 | 0.00 | 0.00 | 0.00 | 28 | 1013.6 |
| 20260901173046 | 23 | 347 | 0.0 | 1.6 | 0.00 | 0.00 | 0.00 | 27 | 1013.4 |
| 20260901171528 | 23 | 49 | 0.0 | 0.0 | 0.00 | 0.00 | 0.00 | 28 | 1013.4 |
| 20260901170015 | 22 | 48 | 0.0 | 0.0 | 0.00 | 0.00 | 0.00 | 29 | 1013.3 |
| 20260901164504 | 22 | 28 | 0.0 | 3.2 | 0.00 | 0.00 | 0.00 | 30 | 1013.2 |
| 20260901163043 | 21 | 302 | 0.0 | 3.2 | 0.00 | 0.00 | 0.00 | 31 | 1013.2 |
| 20260901161533 | 21 | 288 | 0.0 | 1.6 | 0.00 | 0.00 | 0.00 | 33 | 1013.3 |
| 20260901160057 | 20 | 286 | 0.0 | 0.0 | 0.00 | 0.00 | 0.00 | 35 | 1013.5 |
| 20260901154552 | 18 | 290 | 0.0 | 0.0 | 0.00 | 0.00 | 0.00 | 37 | 1013.5 |
| 20260901153025 | 17 | 287 | 0.0 | 0.0 | 0.00 | 0.00 | 0.00 | 40 | 1013.6 |
| 20260901151512 | 17 | 263 | 0.0 | 0.0 | 0.00 | 0.00 | 0.00 | 41 | 1013.6 |
| 20260901150104 | 16 | 271 | 0.0 | 6.4 | 0.00 | 0.00 | 0.00 | 42 | 1013.7 |
| 20260901144545 | 16 | 243 | 1.6 | 6.4 | 0.00 | 0.00 | 0.00 | 42 | 1013.7 |